Location: Newark
(45.4422°N, 16.2769°E)
Time: 12:50:58
(UTC+00:00)

Vanguard 2 - Pass Details

Date: 13 December 2019
Orbit: 553 x 2938 km, 32.9° (Epoch: 17 January)

Event Time Altitude Azimuth Distance (km) Brightness Sun altitude
Rises 22:26:40 0° 216° (SW) 5,156 - -67.3°
Reaches altitude 10° 22:30:07 10° 207° (SSW) 4,477 - -67.4°
Maximum altitude 22:41:26 34° 148° (SSE) 3,664 - -67.7°
Drops below altitude 10° 22:55:57 10° 93° (E) 5,761 - -67.7°
Exits shadow 22:55:59 10° 93° (E) 5,767 11.9 -67.7°
Sets 23:01:07 0° 86° (E) 6,784 12.4 -67.6°
